Hourly Data Report for October 03, 2017

All times are specified in Local Standard Time (LST). Add 1 hour to adjust for Daylight Saving Time where and when it is observed.

GREENWOOD A
NOVA SCOTIA

44°59'00.000" N
64°55'00.000" W
28.00 m
8202000
71397
YZX

Download Data

Hourly Data (October 2017)
Hourly Data Report for October 3, 2017
Temp Definition
°C
Dew Point Temp Definition
°C
Rel Hum Definition
%
Wind Dir Definition
10's deg

Wind Spd Definition
km/h
Visibility Definition
km
Stn Press Definition
kPa
Hmdx Definition


Wind Chill Definition


Weather Definition


TIME
00:00 3.1 2.0 92 23 4 24.1 103.18     Clear
01:00 1.9 1.2 95 27 4 24.1 103.22     Clear
02:00 0.9 0.2 95 28 4 24.1 103.23     Clear
03:00 0.6 -0.4 93 24 4 24.1 103.24     Clear
04:00 0.2 -0.3 96   0 24.1 103.27     Clear
05:00 -0.3 -1.1 94   0 24.1 103.30     Clear
06:00 0.7 0.2 96 25 6 24.1 103.36     Clear
07:00 0.8 -0.7 90 20 6 24.1 103.43     Mainly Clear
08:00 2.9 1.5 90 25 6 24.1 103.45     Mainly Clear
09:00 7.3 4.6 83 25 13 24.1 103.48     Mainly Clear
10:00 10.8 4.8 66 24 6 24.1 103.50     Mainly Clear
11:00 12.2 4.2 58 31 11 24.1 103.38     Mainly Clear
12:00 12.1 6.2 67 29 19 24.1 103.40     Mainly Clear
13:00 12.9 5.8 62 28 20 24.1 103.37     Mainly Clear
14:00 13.2 3.8 53 26 19 24.1 103.29     Mostly Cloudy
15:00 13.2 2.8 49 27 9 24.1 103.19     Mostly Cloudy
16:00 13.2 3.3 51 26 13 24.1 103.12     Mostly Cloudy
17:00 12.2 4.0 57 25 13 24.1 103.01     Mostly Cloudy
18:00 11.7 3.6 58 25 13 24.1 103.00     Mostly Cloudy
19:00 9.9 4.2 68 27 4 24.1 102.99     Mostly Cloudy
20:00 7.4 4.7 83   0 24.1 102.99     Mostly Cloudy
21:00 6.8 4.5 85   0 24.1 102.90     Mostly Cloudy
22:00 6.4 4.3 86 18 4 24.1 102.87     Mostly Cloudy
23:00 5.4 4.1 91 28 4 24.1 102.80     Mainly Clear

Notes on Data Quality.

Legend

  • E = Estimated
  • M = Missing
  • NA = Not Available
  • ‡ = Partner data that is not subject to review by the National Climate Archives
Date modified: